CYGK

Kingston/Norman Rogers Airport

Airport
ICAO code
CYGK
IATA Code
YGK
Summary
ICAO Region
NAM
ICAO Territory
Location

Kingston, Ontario,

Serving
Kingston
Elevation
303 ft
Coordinates
44° 13' 23" N , 76° 35' 58" W
KCC
Airport WX
Lake Effect Snow
Metar
CYGK 181800Z 26008KT 190V300 15SM BKN045 BKN250 23/14 A2998 RMK CU6CI1 SLP155 DENSITY ALT 1300FT

Description

Kingston Airport, or Norman Rogers Airport, is an airport located 4.3 nm west of the center of Kingston, Ontario, Canada.

Climatology

Humid Continental climate (Köppen climate classification Dfb) - Variable weather patterns and a large seasonal temperature variance. Summers are often warm and humid with frequent thunderstorms and winters can be very cold with frequent snowfall and persistent snow cover.

Runways

Designator Length Width Surface Rops
7/25 1199 30 ASP Yes/Yes
1/19 1524 30 ASP Yes/Yes

Airport map

Aerial View

SKYbrary Partners:

Safety knowledge contributed by: